GW5913 Weather Reports


time (UTC)temp
C
wind
direction
speed
KPH
gust
KPH
rain 1hr
cm
rain 24hr
cm
rain mn
cm
humidity
%
barometer
mb
20260507021005 10 170 0.0 3.2 0.00 0.00 0.00 89 1021.5
20260507020502 10 10 1.6 3.2 0.00 0.00 0.00 88 1021.3
20260507015958 10 49 0.0 3.2 0.00 0.00 0.00 86 1021.3
20260507015457 10 34 0.0 3.2 0.00 0.00 0.00 85 1021.0
20260507014954 10 326 0.0 0.0 0.00 0.00 0.00 86 1021.2
20260507014450 11 326 0.0 3.2 0.00 0.00 0.00 82 1020.9
20260507013946 11 61 0.0 3.2 0.00 0.00 0.00 81 1021.2
20260507013443 11 44 0.0 3.2 0.00 0.00 0.00 81 1021.1
20260507012941 11 34 0.0 1.6 0.00 0.00 0.00 80 1020.9
20260507012437 11 24 0.0 3.2 0.00 0.00 0.00 78 1020.8
20260507011934 12 20 1.6 3.2 0.00 0.00 0.00 77 1020.8
20260507011431 12 50 0.0 1.6 0.00 0.00 0.00 76 1020.6
20260507010931 12 52 0.0 3.2 0.00 0.00 0.00 74 1020.8
20260507010427 12 73 0.0 4.8 0.00 0.00 0.00 74 1021.0
20260507005924 13 80 0.0 8.0 0.00 0.00 0.00 73 1020.9
20260507005421 13 84 1.6 4.8 0.00 0.00 0.00 73 1020.9
20260507004917 13 72 4.8 8.0 0.00 0.00 0.00 70 1020.8
20260507004414 13 74 6.4 11.3 0.00 0.00 0.00 70 1020.7
20260507003912 13 65 8.0 9.7 0.00 0.00 0.00 68 1020.9
20260507003407 13 33 1.6 4.8 0.00 0.00 0.00 69 1020.7
20260507002902 13 57 4.8 6.4 0.00 0.00 0.00 68 1020.6
20260507002358 13 70 8.0 9.7 0.00 0.00 0.00 68 1021.0
20260507001856 13 99 6.4 6.4 0.00 0.00 0.00 70 1020.6
20260507001352 13 56 4.8 11.3 0.00 0.00 0.00 68 1020.7
20260507000849 13 64 3.2 6.4 0.00 0.00 0.00 71 1020.7
20260507000344 14 14 4.8 9.7 0.00 0.00 0.00 67 1020.8
20260506235841 14 40 1.6 8.0 0.00 0.00 0.00 67 1020.7
20260506235338 14 23 0.0 9.7 0.00 0.00 0.00 67 1020.4
20260506234834 14 33 6.4 9.7 0.00 0.00 0.00 65 1020.7
20260506234332 14 51 6.4 12.9 0.00 0.00 0.00 67 1020.6
20260506233830 14 36 4.8 9.7 0.00 0.00 0.00 67 1020.4
20260506233325 14 36 4.8 9.7 0.00 0.00 0.00 68 1020.4
20260506232822 14 4 3.2 11.3 0.00 0.00 0.00 68 1020.5
20260506232318 14 34 3.2 8.0 0.00 0.00 0.00 67 1020.7
20260506231815 14 46 11.3 12.9 0.00 0.00 0.00 67 1020.3
20260506231313 14 353 3.2 8.0 0.00 0.00 0.00 68 1020.5
20260506230810 14 77 12.9 14.5 0.00 0.00 0.00 67 1020.3
20260506230306 14 61 4.8 16.1 0.00 0.00 0.00 67 1020.6
20260506225803 14 68 8.0 16.1 0.00 0.00 0.00 65 1020.4
20260506225300 15 55 4.8 14.5 0.00 0.00 0.00 69 1020.1
20260506224756 15 35 4.8 11.3 0.00 0.00 0.00 65 1020.2
20260506224254 15 3 4.8 16.1 0.00 0.00 0.00 67 1020.0
20260506223750 15 40 4.8 11.3 0.00 0.00 0.00 65 1020.0
20260506223245 15 1 4.8 11.3 0.00 0.00 0.00 65 1019.8
20260506222743 15 53 8.0 12.9 0.00 0.00 0.00 64 1019.6
20260506222238 15 342 4.8 19.3 0.00 0.00 0.00 65 1019.3
20260506221736 14 71 9.7 19.3 0.00 0.00 0.00 65 1019.2
20260506221234 14 51 12.9 20.9 0.00 0.00 0.00 65 1019.1
20260506220731 15 55 6.4 16.1 0.00 0.00 0.00 66 1019.2
20260506220226 15 343 11.3 14.5 0.00 0.00 0.00 65 1019.0
20260506215723 15 0 11.3 17.7 0.00 0.00 0.00 66 1018.9
20260506215218 15 358 4.8 17.7 0.00 0.00 0.00 65 1018.8
20260506214715 15 351 6.4 17.7 0.00 0.00 0.00 64 1019.1
20260506214212 15 358 4.8 11.3 0.00 0.00 0.00 64 1019.3
20260506213711 15 356 8.0 14.5 0.00 0.00 0.00 63 1019.3
20260506213208 15 23 9.7 19.3 0.00 0.00 0.00 64 1019.3
20260506212705 15 354 6.4 14.5 0.00 0.00 0.00 64 1019.5
20260506212200 15 54 8.0 17.7 0.00 0.00 0.00 64 1019.5
20260506211656 15 11 4.8 19.3 0.00 0.00 0.00 66 1019.8
20260506211152 14 25 4.8 12.9 0.00 0.00 0.00 66 1019.8
20260506210649 14 346 6.4 11.3 0.00 0.00 0.00 64 1019.8
20260506210146 13 51 12.9 20.9 0.00 0.00 0.00 65 1019.9
20260506205643 15 59 14.5 16.1 0.00 0.00 0.00 65 1019.6
20260506205138 13 33 8.0 16.1 0.00 0.00 0.00 66 1020.0
20260506204636 14 51 6.4 17.7 0.00 0.00 0.00 64 1019.7
20260506204132 15 32 6.4 16.1 0.00 0.00 0.00 66 1020.2
20260506203631 15 6 6.4 12.9 0.00 0.00 0.00 65 1020.2
20260506203127 15 357 8.0 11.3 0.00 0.00 0.00 65 1020.3
20260506202626 15 67 4.8 9.7 0.00 0.00 0.00 65 1020.5
20260506202121 14 3 4.8 22.5 0.00 0.00 0.00 67 1020.7
20260506201619 14 42 4.8 9.7 0.00 0.00 0.00 65 1020.5
20260506201115 14 53 4.8 12.9 0.00 0.00 0.00 66 1020.7
20260506200611 13 6 4.8 16.1 0.00 0.00 0.00 64 1020.8
20260506200108 14 44 11.3 19.3 0.00 0.00 0.00 63 1020.7
20260506195605 14 351 11.3 12.9 0.00 0.00 0.00 64 1020.9
20260506195102 14 0 8.0 19.3 0.00 0.00 0.00 61 1020.8
20260506194559 14 358 8.0 14.5 0.00 0.00 0.00 61 1020.9
20260506194055 15 34 11.3 19.3 0.00 0.00 0.00 60 1021.0
20260506193553 15 5 6.4 16.1 0.00 0.00 0.00 58 1021.4
20260506193050 14 348 6.4 14.5 0.00 0.00 0.00 59 1021.3
20260506192547 13 48 8.0 17.7 0.00 0.00 0.00 63 1021.4
20260506192043 14 30 4.8 16.1 0.00 0.00 0.00 60 1021.2
20260506191539 15 53 11.3 22.5 0.00 0.00 0.00 59 1021.4
20260506191035 15 354 14.5 17.7 0.00 0.00 0.00 63 1021.3
20260506190533 15 5 8.0 20.9 0.00 0.00 0.00 58 1021.3
20260506190030 15 29 6.4 12.9 0.00 0.00 0.00 63 1021.6
20260506185527 16 331 8.0 11.3 0.00 0.00 0.00 64 1021.3
20260506185023 15 40 9.7 19.3 0.00 0.00 0.00 63 1021.5
20260506184521 14 349 12.9 19.3 0.00 0.00 0.00 66 1021.3
20260506184018 13 328 8.0 11.3 0.00 0.00 0.00 66 1021.1
20260506183513 14 343 14.5 16.1 0.00 0.00 0.00 67 1021.4
20260506183010 13 350 17.7 17.7 0.00 0.00 0.00 72 1021.5
20260506182508 13 345 8.0 19.3 0.00 0.00 0.00 70 1021.3
20260506182005 13 7 4.8 11.3 0.00 0.00 0.00 69 1021.5
20260506181503 13 353 9.7 19.3 0.00 0.00 0.00 70 1021.2
20260506180959 13 11 8.0 14.5 0.00 0.00 0.00 72 1021.9
20260506180456 12 356 11.3 17.7 0.00 0.00 0.00 74 1021.9
20260506175952 13 357 11.3 20.9 0.00 0.00 0.00 72 1021.7
20260506175449 13 337 8.0 22.5 0.00 0.00 0.00 71 1021.9
20260506174946 13 344 9.7 17.7 0.00 0.00 0.00 71 1021.7
20260506174444 13 355 9.7 16.1 0.00 0.00 0.00 73 1021.7
20260506173940 12 352 8.0 12.9 0.00 0.00 0.00 73 1022.0
20260506173438 13 353 11.3 16.1 0.00 0.00 0.00 72 1022.0
20260506172934 13 11 8.0 14.5 0.00 0.00 0.00 71 1022.2
20260506172432 13 65 4.8 11.3 0.00 0.00 0.00 74 1022.4
20260506171928 12 55 4.8 9.7 0.00 0.00 0.00 74 1022.3
20260506171426 12 356 4.8 8.0 0.00 0.00 0.00 75 1022.4
20260506170924 12 69 11.3 16.1 0.00 0.00 0.00 72 1022.6
20260506170419 12 74 6.4 19.3 0.00 0.00 0.00 73 1022.3
20260506165919 12 89 6.4 16.1 0.00 0.00 0.00 76 1022.4
20260506165416 12 39 8.0 16.1 0.00 0.00 0.00 75 1022.2
20260506164912 12 54 6.4 14.5 0.00 0.00 0.00 76 1022.1
20260506164408 11 77 29.0 29.0 0.00 0.00 0.00 73 1021.9
20260506163902 12 353 6.4 16.1 0.00 0.00 0.00 74 1021.8
20260506163355 12 0 8.0 17.7 0.00 0.00 0.00 74 1021.9
20260506162850 12 3 6.4 12.9 0.00 0.00 0.00 74 1021.6
20260506162349 12 338 1.6 16.1 0.00 0.00 0.00 76 1021.6
20260506161846 11 61 11.3 27.4 0.00 0.00 0.00 77 1021.6
20260506161343 11 37 14.5 20.9 0.00 0.00 0.00 74 1021.6
20260506160841 11 18 16.1 19.3 0.00 0.00 0.00 76 1021.5
20260506160337 11 21 8.0 12.9 0.00 0.00 0.00 77 1021.4
20260506155836 11 3 8.0 17.7 0.00 0.00 0.00 75 1021.4
20260506155332 11 350 8.0 19.3 0.00 0.00 0.00 76 1021.4
20260506153444 11 356 6.4 17.7 0.00 0.00 0.00 78 1021.1
20260506152942 11 339 9.7 14.5 0.00 0.00 0.00 76 1021.3
20260506152439 11 12 11.3 27.4 0.00 0.00 0.00 78 1021.1
20260506151937 11 41 11.3 17.7 0.00 0.00 0.00 78 1021.3
20260506151434 11 354 9.7 14.5 0.00 0.00 0.00 78 1021.3
20260506150932 11 0 8.0 14.5 0.00 0.00 0.00 77 1021.4
20260506150427 11 7 8.0 22.5 0.00 0.00 0.00 78 1021.6
20260506145925 11 56 16.1 20.9 0.00 0.00 0.00 78 1021.4
20260506145421 11 16 8.0 14.5 0.00 0.00 0.00 79 1021.6
20260506144919 10 49 9.7 17.7 0.00 0.00 0.00 79 1021.5
20260506144415 10 331 8.0 24.1 0.00 0.00 0.00 79 1020.8
20260506143914 10 47 9.7 17.7 0.00 0.00 0.00 80 1021.2
20260506143410 10 32 8.0 16.1 0.00 0.00 0.00 82 1021.0
20260506142908 10 41 9.7 20.9 0.00 0.00 0.00 84 1020.8
20260506142406 9 356 9.7 14.5 0.00 0.00 0.00 84 1021.2
20260506141904 9 354 6.4 20.9 0.00 0.00 0.00 84 1020.9
20260506141401 10 349 8.0 14.5 0.00 0.00 0.00 84 1020.8
20260506140900 9 22 14.5 16.1 0.00 0.00 0.00 85 1020.8
20260506140356 9 336 12.9 17.7 0.00 0.00 0.00 84 1020.6
20260506135853 9 345 11.3 19.3 0.00 0.00 0.00 84 1020.7
20260506135350 9 25 9.7 17.7 0.00 0.00 0.00 83 1020.9
20260506134846 9 25 8.0 22.5 0.00 0.00 0.00 83 1021.1
20260506134343 9 352 12.9 17.7 0.00 0.00 0.00 82 1021.0
20260506133840 9 1 14.5 16.1 0.00 0.00 0.00 83 1021.1
20260506133336 9 342 6.4 14.5 0.00 0.00 0.00 83 1021.2
20260506132833 9 4 8.0 12.9 0.00 0.00 0.00 83 1021.4
20260506132330 9 356 17.7 17.7 0.00 0.00 0.00 82 1021.2
20260506131828 9 346 6.4 16.1 0.00 0.00 0.00 84 1021.1
20260506131324 9 7 6.4 16.1 0.00 0.00 0.00 83 1021.1
20260506130822 8 39 12.9 22.5 0.00 0.00 0.00 83 1020.8
20260506130318 8 7 6.4 14.5 0.00 0.00 0.00 83 1021.1
20260506125816 8 357 12.9 14.5 0.00 0.00 0.00 83 1021.2
20260506125314 8 20 4.8 12.9 0.00 0.00 0.00 84 1021.0
20260506124813 8 8 6.4 16.1 0.00 0.00 0.00 85 1020.9
20260506124309 8 352 11.3 16.1 0.00 0.00 0.00 85 1020.7
20260506123807 8 354 6.4 16.1 0.00 0.00 0.00 85 1020.6
20260506123305 8 347 11.3 16.1 0.00 0.00 0.00 85 1020.5
20260506122801 8 30 9.7 14.5 0.00 0.00 0.00 85 1020.5
20260506122259 8 359 11.3 16.1 0.00 0.00 0.00 85 1020.4
20260506121757 8 3 9.7 11.3 0.00 0.00 0.00 85 1020.1
20260506121253 8 4 6.4 6.4 0.00 0.00 0.00 86 1020.0
20260506120751 8 10 6.4 11.3 0.00 0.00 0.00 85 1020.0
20260506120248 8 348 4.8 12.9 0.00 0.00 0.00 85 1020.0
20260506115746 8 351 6.4 9.7 0.00 0.00 0.00 85 1020.1
20260506115244 8 12 4.8 9.7 0.00 0.00 0.00 84 1019.9
20260506114741 8 38 4.8 17.7 0.00 0.00 0.00 84 1019.9
20260506114239 8 27 4.8 11.3 0.00 0.00 0.00 84 1020.0
20260506113737 8 353 6.4 11.3 0.00 0.00 0.00 85 1019.8
20260506113234 8 359 8.0 14.5 0.00 0.00 0.00 84 1019.5
20260506112730 8 6 6.4 14.5 0.00 0.00 0.00 86 1019.6
20260506112228 8 349 8.0 12.9 0.00 0.00 0.00 86 1019.6
20260506111725 8 358 6.4 11.3 0.00 0.00 0.00 86 1019.2
20260506111224 8 8 6.4 14.5 0.00 0.00 0.00 85 1019.2
20260506110721 8 12 4.8 14.5 0.00 0.00 0.00 85 1019.1
20260506110218 8 342 8.0 11.3 0.00 0.00 0.00 86 1019.3
20260506105714 8 0 14.5 14.5 0.00 0.00 0.00 85 1019.1
20260506105211 8 359 6.4 14.5 0.00 0.00 0.00 86 1018.8
20260506104709 8 2 6.4 11.3 0.00 0.00 0.00 86 1018.8
20260506104207 8 349 6.4 9.7 0.00 0.00 0.00 86 1018.8
20260506103703 8 3 9.7 9.7 0.00 0.00 0.00 85 1018.5
20260506103200 8 19 9.7 9.7 0.00 0.00 0.00 84 1018.4
20260506102659 8 37 3.2 16.1 0.00 0.00 0.00 85 1018.0
20260506102156 8 7 8.0 11.3 0.00 0.00 0.00 84 1018.3
20260506101652 8 18 6.4 9.7 0.00 0.00 0.00 85 1018.2
20260506101149 8 1 8.0 16.1 0.00 0.00 0.00 84 1018.1
20260506100648 8 349 12.9 14.5 0.00 0.00 0.00 84 1017.7
20260506100145 8 343 8.0 20.9 0.00 0.00 0.00 84 1017.7
20260506095644 8 0 4.8 17.7 0.00 0.00 0.00 85 1017.5
20260506095140 8 46 11.3 20.9 0.00 0.00 0.00 84 1017.2
20260506094637 8 36 8.0 20.9 0.00 0.00 0.00 84 1017.0
20260506094135 8 0 6.4 24.1 0.00 0.00 0.00 85 1016.8
20260506093634 8 15 6.4 19.3 0.00 0.00 0.00 85 1016.8
20260506093130 8 76 8.0 20.9 0.00 0.00 0.00 85 1016.9
20260506092628 8 52 11.3 27.4 0.00 0.00 0.00 85 1017.1
20260506092125 8 328 14.5 24.1 0.00 0.00 0.00 86 1017.2
20260506091623 8 29 9.7 25.7 0.00 0.00 0.00 85 1017.2
20260506091120 8 9 6.4 19.3 0.00 0.00 0.00 87 1017.3
20260506090618 8 1 6.4 17.7 0.00 0.00 0.00 87 1017.1
20260506090114 8 354 11.3 19.3 0.00 0.00 0.00 88 1017.1
20260506085611 8 345 6.4 17.7 0.00 0.00 0.00 88 1017.2
20260506085108 8 9 8.0 12.9 0.00 0.00 0.00 89 1017.0
20260506084604 8 0 8.0 14.5 0.00 0.00 0.00 89 1017.0
20260506084101 8 66 0.0 16.1 0.00 0.00 0.00 90 1017.4
20260506083558 8 355 4.8 14.5 0.00 0.00 0.00 90 1017.4
20260506083055 8 47 11.3 19.3 0.00 0.00 0.00 90 1016.8
20260506082552 8 14 4.8 9.7 0.00 0.00 0.00 90 1016.7
20260506082048 8 355 4.8 17.7 0.00 0.00 0.00 90 1016.5
20260506081546 8 48 8.0 22.5 0.00 0.00 0.00 90 1016.5
20260506081043 8 2 12.9 17.7 0.00 0.00 0.00 90 1016.2
20260506080541 8 40 6.4 19.3 0.00 0.00 0.00 91 1016.2
20260506073524 8 2 9.7 19.3 0.00 0.00 0.00 92 1016.5
20260506073021 8 16 8.0 12.9 0.00 0.00 0.00 94 1016.6
20260506072518 8 0 11.3 16.1 0.00 0.00 0.00 94 1015.9
20260506072016 8 15 6.4 12.9 0.00 0.00 0.00 94 1016.4
20260506071514 8 12 6.4 11.3 0.00 0.00 0.00 94 1016.5
20260506071011 8 39 6.4 14.5 0.00 0.00 0.00 96 1016.8
20260506070508 8 29 6.4 12.9 0.00 0.00 0.00 96 1016.9
20260506062445 8 3 8.0 12.9 0.00 0.00 0.00 94 1017.0
20260506061941 8 68 8.0 14.5 0.00 0.00 0.00 93 1017.5
20260506061438 8 347 8.0 19.3 0.00 0.00 0.00 93 1017.0
20260506060936 8 0 6.4 16.1 0.00 0.00 0.00 93 1016.2
20260506060434 8 41 20.9 20.9 0.00 0.00 0.00 94 1016.5
20260506051406 8 19 6.4 12.9 0.00 0.00 0.00 94 1016.6
20260506050903 8 3 8.0 20.9 0.00 0.00 0.00 94 1016.2
20260506050400 8 31 8.0 16.1 0.00 0.00 0.00 95 1016.3
20260506044850 8 3 9.7 14.5 0.00 0.23 0.23 96 1016.4
20260506044349 8 348 11.3 17.7 0.00 0.23 0.23 96 1016.4
20260506043845 8 6 8.0 14.5 0.00 0.23 0.23 96 1016.3
20260506043342 8 356 4.8 11.3 0.00 0.23 0.23 96 1016.3
20260506042841 8 1 11.3 16.1 0.00 0.23 0.23 96 1016.3
20260506042339 8 343 9.7 16.1 0.00 0.23 0.23 95 1016.2
20260506041838 8 352 9.7 16.1 0.00 0.23 0.23 95 1016.1
20260506041334 9 345 11.3 16.1 0.00 0.23 0.23 94 1015.8
20260506040832 9 358 11.3 30.6 0.00 0.23 0.23 94 1016.0
20260506040329 8 358 6.4 19.3 0.00 0.23 0.23 94 1015.9
20260506035825 9 0 6.4 19.3 0.00 0.23 0.23 94 1015.8
20260506035323 9 352 6.4 14.5 0.00 0.23 0.23 94 1015.8
20260506034820 9 356 3.2 19.3 0.00 0.23 0.23 94 1015.6
20260506034317 9 6 8.0 11.3 0.00 0.23 0.23 94 1015.7
20260506033814 9 17 8.0 11.3 0.00 0.23 0.23 94 1015.8
20260506033311 9 359 6.4 20.9 0.00 0.23 0.23 94 1015.8
20260506032808 9 9 8.0 17.7 0.00 0.23 0.23 94 1015.6
20260506032306 9 4 6.4 12.9 0.00 0.23 0.23 95 1015.1
20260506031801 9 36 9.7 16.1 0.00 0.23 0.23 95 1015.5
20260506031258 9 13 6.4 14.5 0.00 0.23 0.23 96 1015.3
20260506030756 9 357 9.7 11.3 0.00 0.23 0.23 96 1015.3
20260506030254 9 10 8.0 12.9 0.00 0.23 0.23 96 1014.8
20260506025751 9 10 8.0 16.1 0.00 0.23 0.23 96 1014.8
20260506025247 9 356 8.0 14.5 0.00 0.23 0.23 96 1014.5
20260506024744 9 348 9.7 14.5 0.00 0.23 0.23 96 1014.6
20260506024241 9 27 4.8 12.9 0.00 0.23 0.23 95 1014.1
20260506023737 9 27 6.4 16.1 0.00 0.23 0.23 95 1014.0
20260506023234 9 16 6.4 20.9 0.00 0.23 0.23 95 1013.9
20260506022731 9 19 8.0 27.4 0.00 0.23 0.23 95 1014.0
20260506022229 9 33 4.8 11.3 0.00 0.23 0.23 95 1014.1
20260506021726 9 9 8.0 14.5 0.00 0.23 0.23 95 1013.7
20260506021223 9 347 4.8 17.7 0.00 0.23 0.23 95 1013.8